Погода в Брылине

Россия / Курганская область     56°03′35″N   64°56′25″E
темп.,
°C
ветер,
м/с
пор.,
м/с
влажн.,
%
обл.,
%
осадки,
мм/ч
давл.,
гПа
погр.,
м
12 апреля, пн
пн1223:00+3ююз513865 0.0 1034265
02:00+3юз5138824 0.0 1034238
05:00+2зюз4893100 0.0 1034141
08:00+5з3786100 0.0 1034167
11:00+8зсз4791100 0.1 1034291
14:00+6зсз3698100 0.3 1035210
17:00+10сз3677100 0.3 1035518
20:00+7ссз3884100 0.0 1037153
13 апреля, вт
вт1323:00+5с358798 0.0 103876
02:00+3с33752 0.0 103927
05:00+2с22771 0.0 104110
08:00+5с22660 0.0 1042127
11:00+9зсз11480 0.0 1041619
14:00+12зюз33370 0.0 1040971
17:00+12зюз34410 0.0 10391006
20:00+8юз33630 0.0 103836
14 апреля, ср
ср1423:00+6юз347228 0.0 103856
02:00+5юз487859 0.0 1036126
05:00+4юз41181100 0.0 1035176
08:00+7зюз4117398 0.0 1034277
11:00+12зюз686034 0.0 1032522
14:00+16зюз675758 0.0 1031898
17:00+16з675931 0.0 10291115
20:00+12зюз3579100 0.0 102873
15 апреля, чт
чт1523:00+10зюз4786100 0.0 1027105
02:00+9зюз488942 0.0 1027121
05:00+8зюз479012 0.0 1026108
08:00+11з468123 0.0 1026192
11:00+16з466222 0.0 1024625
14:00+18з565232 0.0 10221178
17:00+18з55505 0.0 10211267
20:00+14зюз33685 0.0 102036
16 апреля, пт
пт1623:00+11юз34685 0.0 101850
02:00+9юз35635 0.0 101767
05:00+8юз34656 0.0 101651
08:00+11зюз36625 0.0 1015178
11:00+16зюз45535 0.0 1013647
14:00+18з563523 0.0 10111491
17:00+18з453974 0.0 10091743
20:00+13з225834 0.0 100911